Regional Weather Roundup
Issued by NWS Boston, MA

Home | Current Version | Previous Version | Text Only | Print | Product List | Glossary On
Versions: 1 2 3 4 5 6 7 8 9 10 11 12 13 14 15 16 17 18 19 20 21 22 23 24 25 26 27 28 29 30 31 32 33 34 35 36 37 38 39 40 41 42 43 44 45 46 47 48 49 50
000
ASUS41 KBOX 022010
RWRBOX

REGIONAL WEATHER ROUNDUP
NATIONAL WEATHER SERVICE TAUNTON MA
400 PM EDT WED SEP 02 2015

NOTE:  "FAIR" INDICATES FEW OR NO CLOUDS BELOW 12,000 FEET WITH NO
SIGNIFICANT WEATHER AND/OR OBSTRUCTIONS TO VISIBILITY.  THE FOLLOWING
OBSERVATION LOCATIONS DO NOT REPORT PRESENT WEATHER...PROVINCETOWN...
SMITHFIELD...BLOCK ISLAND...KEENE...AND OXFORD.

MAZALL-022100-
EASTERN MASSACHUSETTS

CITY           SKY/WX    TMP DP  RH WIND       PRES   REMARKS
BOSTON         MOSUNNY   89  63  41 W6        29.88F HX  90
BEVERLY        SUNNY     89  59  36 W8        29.88F
LAWRENCE       SUNNY     91  59  33 W9        29.90F HX  90
BEDFORD        SUNNY     90  55  30 W9        29.88F
BLUE HILL        N/A     87  62  43 W10       29.91F
NORWOOD        SUNNY     89  64  43 W10       29.89F HX  90
MARSHFIELD     SUNNY     88  70  55 SW9       29.90F HX  92
PLYMOUTH       SUNNY     85  68  56 SW10G17   29.91F
TAUNTON        SUNNY     86  69  56 SW9       29.90F HX  90
NEW BEDFORD    SUNNY     82  68  62 SW13      29.91F
$$

MAZALL-022100-
CAPE COD AND THE ISLANDS

CITY           SKY/WX    TMP DP  RH WIND       PRES   REMARKS
FALMOUTH       SUNNY     79  63  57 SW15      29.93F
HYANNIS        SUNNY     80  62  54 SW17      29.91F
CHATHAM        SUNNY     77  70  79 SW9       29.94F
PROVINCETOWN     N/A     81  63  54 SW10      29.92S
NANTUCKET        N/A    N/A N/A N/A MISG      29.94F
MARTHAS VNYRD  SUNNY     79  65  62 SW14      29.94F
$$

MAZALL-022100-
CENTRAL AND WESTERN MASSACHUSETTS

CITY           SKY/WX    TMP DP  RH WIND       PRES   REMARKS
WORCESTER      SUNNY     84  61  45 W12       29.95F
FITCHBURG      SUNNY     89  63  41 W8        29.91F HX  90
ORANGE         SUNNY     86  63  45 W7        29.92F
SPRINGFIELD    SUNNY     89  65  45 NW7       29.90F HX  90
WESTFIELD      SUNNY     89  62  40 NW9       29.91F
NORTH ADAMS    SUNNY     84  66  54 NW6       29.94F
PITTSFIELD     SUNNY     83  64  52 NW9       29.95F
$$

RIZALL-022100-
RHODE ISLAND

CITY           SKY/WX    TMP DP  RH WIND       PRES   REMARKS
PROVIDENCE     MOSUNNY   88  65  46 SW14      29.91F HX  90
NEWPORT        SUNNY     79  64  60 S8        29.93F
BLOCK ISLAND   SUNNY     79  68  69 SW16      29.94F
SMITHFIELD     SUNNY     88  63  42 W6        29.92F
WESTERLY       SUNNY     81  64  56 S13       29.93F
$$

CTZALL-022100-
CONNECTICUT

CITY           SKY/WX    TMP DP  RH WIND       PRES   REMARKS
BRADLEY INTL   MOSUNNY   90  62  39 NW12      29.90F HX  90
HARTFORD       SUNNY     91  62  37 NW10      29.89F HX  91
BRIDGEPORT     SUNNY     86  67  52 S13       29.91F
DANBURY        PTSUNNY   87  59  38 NW5       29.94F
GROTON         SUNNY     79  71  76 S6        29.92F
NEW HAVEN      MOSUNNY   85  67  54 S8        29.92F
CHESTER        NOT AVBL
MERIDEN        SUNNY     91  59  33 VRB6      29.90F HX  90
WILLIMANTIC    SUNNY     90  60  36 SW8       29.90F
OXFORD         MOSUNNY   88  63  42 VRB6      29.97F
$$

MEZ002-015-021-024-NHZ003-005-008-011-012-014-VTZ005-008-022100-
NORTHERN NEW ENGLAND

CITY           SKY/WX    TMP DP  RH WIND       PRES   REMARKS
PORTLAND ME    MOSUNNY   81  68  64 S9        29.89F
BANGOR ME      MOSUNNY   85  65  51 W8        29.86F
CONCORD NH     SUNNY     89  65  44 CALM      29.89F HX  91
MANCHESTER NH  SUNNY     90  57  32 SW7       29.87F
NASHUA NH      SUNNY     89  57  33 NW7       29.89F
PORTSMOUTH NH  SUNNY     89  62  40 W5        29.87F HX  90
JAFFREY NH     SUNNY     84  62  47 W8        29.95F
KEENE NH       SUNNY     84  64  51 CALM      29.92F
BURLINGTON VT  PTSUNNY   87  65  47 VRB3      29.91F
MT. WASHINGTON MOSUNNY   61  50  67 W7          N/A
$$

NYZ052-076-022100-
EASTERN NEW YORK

CITY           SKY/WX    TMP DP  RH WIND       PRES   REMARKS
ALBANY         MOSUNNY   89  65  44 NW8       29.92F HX  91
NEW YORK CITY  PTSUNNY   86  64  47 S15       29.91F
$$

ANZALL-022100-
MARINE OBSERVATIONS

STATION/POSITION TIME  TEMP    WIND        PRES    VSBY  WAVE
                       AIR SEA DIR/SP/G                  HT/PER
                 (UTC) (F)     (DEG/KT/KT) (MB)    (MI)  (FT/S)
BOSTON BUOY      1950   74 73  130/  6/  8 1012.4F         1/12
BUZZARDS BAY     1900          210/ 16/ 16 1014.8F
NANTUCKET SOUND  1950   74 75  230/ 12/ 16 1013.3F         1/ 3
MASS BAY-STELLWA 1904   73 69  170/  8/ 10   N/A    1 7/8  1/ 3
ISLE OF SHOALS   2000   76     150/ 14/ 14 1011.4F
S OF BLOCK IS    1908      75                N/A           2/ 7
$$

......................KEY.........................
  SKY/WX - SKY CONDITION/PRESENT WEATHER
  TMP    - TEMPERATURE IN FAHRENHEIT
  DWPT   - DEWPOINT IN FAHRENHEIT
  RH     - RELATIVE HUMIDITY IN PERCENT
  WIND   - DIRECTION AND SPEED IN MPH
  PRES   - MEAN SEA LEVEL PRESSURE IN INCHES OF HG
  WCI    - WIND CHILL INDEX
  VSB    - VISIBILITY IN MILES
  HX     - HEAT INDEX
  TC     - TEMPERATURE IN CELSIUS
  VRB    - VARIABLE WIND DIRECTION
  N/A    - NOT AVAILABLE



USA.gov is the U.S. government's official web portal to all federal, state and local government web resources and services.